Chanute, KS

9:23 AM CDT on July 27, 2017 (GMT -0500)
Chanute Martin Johnson

Weather History for KCNU - March, 2014

Change the Weather History Date:

Sunday, March 16, 2014

  Actual Average Record
Temperature  
Mean Temperature 40 °F 47 °F  
Max Temperature 53 °F 58 °F 82 °F (2012)
Min Temperature 27 °F 36 °F 17 °F (1900)
Degree Days  
Heating Degree Days 25 18  
Month to date heating degree days 415 327  
Since 1 July heating degree days 4435 3899  
Cooling Degree Days 0 0  
Month to date cooling degree days 0 0  
Year to date cooling degree days 0 0  
Moisture  
Dew Point 31 °F    
Average Humidity 74    
Maximum Humidity 93    
Minimum Humidity 54    
Precipitation  
Precipitation 0.42 in 0.10 in 0.95 in (1970)
Month to date precipitation 0.73 1.48  
Year to date precipitation 1.70 4.64  
Sea Level Pressure  
Sea Level Pressure 30.04 in    
Wind  
Wind Speed 17 mph (NNE)    
Max Wind Speed 30 mph    
Max Gust Speed 39 mph    
Visibility 6 miles    
Events Rain , Snow    
T = Trace of Precipitation, MM = Missing Value Source: NWS Daily Summary

Daily Weather History Graph

Daily Weather History Graph

Search for Another Location

Airport or City:

Trip Planner

Search our weather history database for the weather conditions in past years. The results will help you decide how hot, cold, wet, or windy it might be!

Date:

Astronomy

Mar. 16, 2014 Rise Set
Actual Time 7:31 AM CDT 7:30 PM CDT
Civil Twilight 7:05 AM CDT 7:56 PM CDT
Nautical Twilight 6:34 AM CDT 8:26 PM CDT
Astronomical Twilight 6:04 AM CDT 8:57 PM CDT
Moon 7:47 PM CDT (3/16) 7:15 AM CDT (3/16)
Length of Visible Light 12h 50m
Length of Day
11h 58m
Full, 100% of the Moon is Illuminated
Mar 16
Full
Mar 16
Full
Mar 23
Last Quarter
Mar 30
New
Apr 7
First Quarter

Hourly Weather History & Observations

Time (CDT) Temp. Windchill Dew Point Humidity Pressure Visibility Wind Dir Wind Speed Gust Speed Precip Events Conditions
12:52 AM 53.1 °F - 48.9 °F 86% 29.82 in 10.0 mi North 9.2 mph - 0.00 in Rain Light Rain
1:39 AM 52.0 °F - 48.9 °F 89% 29.85 in 4.0 mi North 12.7 mph - 0.09 in Rain Rain
1:52 AM 51.1 °F - 48.9 °F 92% 29.84 in 5.0 mi North 11.5 mph - 0.12 in Rain Rain
2:52 AM 46.9 °F - 44.1 °F 90% 29.88 in 4.0 mi NNE 16.1 mph 27.6 mph 0.07 in Rain Rain
3:52 AM 42.1 °F 32.8 °F 39.9 °F 92% 29.88 in 4.0 mi North 21.9 mph 31.1 mph 0.10 in Rain Rain
4:37 AM 39.0 °F 28.5 °F 36.0 °F 89% 29.91 in 5.0 mi North 23.0 mph 39.1 mph 0.05 in Rain Light Rain
4:52 AM 37.9 °F 27.1 °F 35.1 °F 89% 29.92 in 6.0 mi North 23.0 mph 32.2 mph 0.06 in Rain Light Rain
5:33 AM 36.0 °F 25.3 °F 32.0 °F 86% 29.94 in 8.0 mi North 19.6 mph 33.4 mph 0.01 in Rain Light Rain
5:52 AM 36.0 °F 24.4 °F 30.9 °F 82% 29.95 in 10.0 mi NNE 23.0 mph 39.1 mph 0.01 in Rain Light Rain
6:52 AM 35.1 °F 23.5 °F 30.9 °F 85% 29.98 in 7.0 mi North 21.9 mph 34.5 mph 0.01 in Rain Light Rain
7:06 AM 35.1 °F 24.1 °F 32.0 °F 89% 29.98 in 6.0 mi North 19.6 mph 33.4 mph 0.01 in Snow Light Snow
7:52 AM 34.0 °F 23.0 °F 30.9 °F 89% 30.01 in 2.5 mi North 18.4 mph 32.2 mph 0.03 in Snow Light Snow
7:57 AM 34.0 °F 22.4 °F 30.9 °F 89% 30.01 in 1.8 mi North 20.7 mph 29.9 mph 0.01 in Snow Light Snow
8:05 AM 33.1 °F 20.9 °F 30.9 °F 92% 30.02 in 1.2 mi North 21.9 mph 29.9 mph 0.01 in Snow Light Snow
8:19 AM 33.1 °F 21.5 °F 30.9 °F 92% 30.03 in 0.8 mi North 19.6 mph 32.2 mph 0.01 in Snow Light Snow
8:29 AM 33.1 °F 21.9 °F 30.9 °F 92% 30.04 in 1.0 mi North 18.4 mph 29.9 mph 0.01 in Snow Light Snow
8:43 AM 33.1 °F 20.9 °F 30.9 °F 92% 30.04 in 1.5 mi North 21.9 mph 28.8 mph 0.01 in Snow Light Snow
8:52 AM 33.1 °F 21.2 °F 30.9 °F 92% 30.05 in 1.8 mi North 20.7 mph 28.8 mph 0.01 in Snow Light Snow
8:58 AM 33.1 °F 20.9 °F 30.9 °F 92% 30.05 in 2.0 mi North 21.9 mph 29.9 mph 0.00 in Snow Light Snow
9:09 AM 34.0 °F 21.8 °F 30.9 °F 89% 30.06 in 4.0 mi North 23.0 mph 32.2 mph 0.00 in Snow Light Snow
9:21 AM 34.0 °F 21.5 °F 30.0 °F 85% 30.07 in 1.8 mi North 24.2 mph 33.4 mph 0.00 in Snow Light Snow
9:40 AM 34.0 °F 21.8 °F 30.9 °F 89% 30.08 in 3.0 mi North 23.0 mph 32.2 mph 0.00 in Snow Light Snow
9:52 AM 34.0 °F 22.1 °F 30.9 °F 89% 30.09 in 5.0 mi North 21.9 mph 35.7 mph 0.00 in Snow Light Snow
10:52 AM 34.0 °F 22.1 °F 30.0 °F 85% 30.13 in 10.0 mi North 21.9 mph 34.5 mph 0.01 in Rain Light Rain
11:20 AM 34.0 °F 21.8 °F 30.0 °F 85% 30.14 in 10.0 mi North 23.0 mph 35.7 mph 0.00 in   Overcast
11:52 AM 34.0 °F 21.8 °F 30.0 °F 85% 30.17 in 10.0 mi North 23.0 mph 31.1 mph 0.00 in   Overcast
12:52 PM 33.1 °F 20.9 °F 28.0 °F 82% 30.17 in 10.0 mi North 21.9 mph 34.5 mph N/A   Overcast
1:52 PM 33.1 °F 19.8 °F 27.0 °F 78% 30.17 in 10.0 mi North 26.5 mph 34.5 mph N/A   Overcast
2:52 PM 37.0 °F 25.4 °F 28.0 °F 70% 30.12 in 10.0 mi North 25.3 mph 35.7 mph N/A   Mostly Cloudy
3:26 PM 39.0 °F 29.0 °F 28.0 °F 65% 30.11 in 10.0 mi NNE 20.7 mph 33.4 mph N/A   Scattered Clouds
3:52 PM 39.0 °F 29.0 °F 28.0 °F 65% 30.12 in 10.0 mi NNE 20.7 mph 27.6 mph N/A   Scattered Clouds
4:52 PM 39.9 °F 30.8 °F 27.0 °F 60% 30.12 in 10.0 mi North 18.4 mph 27.6 mph N/A   Partly Cloudy
5:52 PM 41.0 °F 33.9 °F 26.1 °F 55% 30.12 in 10.0 mi North 12.7 mph - N/A   Partly Cloudy
6:52 PM 39.0 °F - 24.1 °F 55% 30.14 in 10.0 mi North - - N/A   Clear
7:52 PM 36.0 °F 29.6 °F 21.0 °F 55% 30.14 in 10.0 mi NNE 8.1 mph - N/A   Clear
8:52 PM 34.0 °F 27.2 °F 21.9 °F 61% 30.14 in 10.0 mi NNE 8.1 mph - N/A   Clear
9:52 PM 32.0 °F 24.2 °F 21.0 °F 64% 30.14 in 10.0 mi NNE 9.2 mph - N/A   Clear
10:52 PM 30.9 °F 22.8 °F 21.0 °F 67% 30.15 in 10.0 mi NE 9.2 mph - N/A   Clear
11:52 PM 28.9 °F 22.8 °F 19.9 °F 69% 30.14 in 10.0 mi NE 5.8 mph - N/A   Clear